Погода Кочубей

Погода Кочубей : погода сейчас, прогноз погоды и архив. Всё, что Вы хотите узнать о погоде Кочубей!

Поиск расширенной информации на нашем сайте:

Другие новости

Новости СМИ2

Главная страница сайта

Новости сайта

02.10.2013

Напоминаем, что на нашем новом сайте вы можете получить высокодетализированные прогнозы погоды по пунктам России, СНГ и мира (включающие важные для авиации метеовеличины, такие как направление и скорость ветра, видимость, явления погоды, количество и форма облачности, нижняя и верхняя граница облачности), а также ознакомиться с разнообразными материалами по авиационной метеорологии и подборкой полезных ссылок на эту тему.

Сайт Метеоцентр.Азия посвящён разработке технологий оптимизации авиаметеорологического обслуживания, включая проектирование и перспективное создание нескольких автоматизированных авиаметеорологических систем:
- система выпуска высокодетальных прогностических карт явлений погоды для нижнего воздушного пространства по России и ближнему зарубежью;
- система верификации прогнозов TAF (выпускаемых синоптиками официальных АМСГ РФ и ближнего зарубежья) и AUTOTAF (выпускаемых сайтом Метеоцентр.Азия) - выявление ошибок, онлайн-сопоставление с фактической погодой METAR, автоматическое внесение коррективов в прогнозы при резком отклонении фактической погоды от прогноза, подсчёт оправдываемости прогнозов по элементам и в целом;
- система обработки, анализа и отображения авиаметеорологической информации для применения провайдерами метеорологической информации.

Рекомендуем: Закупка услуг по изготовлению бланков.

Погода Кочубей - сегодня

Время (UTC), дата Ветер
(°,м/с) 
Видим.   Явления Облачность Т
(°С)
Тd
(°С)
f(%) Тe
(°С)
Pmin
(гПа)
dP
(гПа)
Po
(мм)
O2
(г/м3)
Тmin Tmax R s Состояние
почвы
00 22.03.17 260 (З) 7-12{12}  4000 м    10/0 средняя 
[Ac As]
+4.8 +1 76 +2  1012.5  0.4  761  301           
03 22.03.17 250 (З) 6-10{13}  4000 м    10/8 600 м средняя 
[Sc|Ac As]
+4.6 +0.7 76 +2  1013.2  0.7  762  302  +4.4         
06 22.03.17 260 (З) 8-12{13}  10 км  слаб. дождь  10/10 600 м 
[Frnb|Ns]
+4.4 +2.1 85 +1  1013.7  0.5  762  302           
09 22.03.17 270 (З) //-13{14}  10 км  слаб. дождь  10/10 600 м 
[Frnb|Ns]
+3 +2 93 +3  1014.7  763  304           
12 22.03.17 260 (З) 10 км  слаб. дождь  10/10 600 м 
[Frnb|Ns]
+1.9 +1 94 1014.8  763  305           
15 22.03.17 240 (ЮЗ) 4000 м  слаб. снег{дождь}  10/10 600 м 
[Frnb|Ns]
+1 +0.4 96 -1  1016.7  1.9  765  307         
18 22.03.17 280 (З) 4000 м  слаб. снег{дождь}  10/10 600 м 
[Frnb|Ns]
+0.8 -0 94 -1  1018.6  1.9  766  308           
21 22.03.17 300 (СЗ) 4000 м  слаб. снег{дождь}  10/10 600 м 
[Frnb|Ns]
+0.4 -0.1 96 -1  1019.1  0.5  766  308           
00 23.03.17 290 (З) 4000 м  слаб. снег{дождь}  10/10 300 м 
[Frnb|Ns]
+0.3 -0.2 96 1019.4  0.3  767  309           
03 23.03.17 280 (З) 4000 м  {снег}  10/10 600 м 
[Sc]
+0.4 -0.3 95 1020.5  1.1  767  309  +0.2       
06 23.03.17 310 (СЗ) 20000 м  {снег, дождь}  9/9 600 м 
[Sc]
+1.2 -0.2 90 1022.1  1.6  769  308           
09 23.03.17 290 (З) 20000 м    10/10 600 м 
[Sc]
+2.5 -0.2 82 +1  1023  0.9  769  307           
12 23.03.17 290 (З) 20000 м    10/10 600 м 
[Sc]
+3.6 +0.4 80 +2  1023.7  770  306           
15 23.03.17 290 (З) 20000 м    10/10 600 м 
[Sc]
+3.5 +1 84 +2  1025  1.2  771  307      0.0     
18 23.03.17 270 (З) 4000 м    10/10 600 м 
[Sc]
+3.4 +1.5 87 +3  1026.3  1.4  772  307           
21 23.03.17 280 (З) 4000 м    10/10 600 м 
[Sc]
+2.9 +1.5 90 +2  1026.5  0.2  772  308           
00 24.03.17 290 (З) 4000 м    10/10 600 м 
[Sc]
+2.6 +1.5 92 +2  1026.6  0.1  772  308           
03 24.03.17 280 (З) 4000 м    8/0 средняя 
[Ac trans]
+1.2 +0.3 94 +1  1027.6  1.1  773  310  +1.2         
06 24.03.17 310 (СЗ) 20000 м    8/8 600 м 
[Cu hum]
+5 +0.1 71 +4  1028.5  0.8  773  306  +1.1         
09 24.03.17 290 (З) 20000 м    6/5 600 м верхняя 
[Cu hum|Ci fib]
+8 -0 57 +7  1027.6  -0.9  773  303           
12 24.03.17 320 (СЗ) 20000 м    8/8 600 м 
[Sc]
+10.2 +0.6 51 +11  1026.1  -1.5  772  300           
15 24.03.17 110 (В) 20000 м    8/8 600 м 
[Sc]
+8.4 +2.4 66 +7  1025.7  -0.3  771  301    +10.9       
18 24.03.17 140 (ЮВ) 4000 м    ясно 
+4.5 +2.1 84 +3  1025.8  0.2  771  306           
21 24.03.17 150 (ЮВ) 4000 м    ясно 
+1.8 +0.4 90 1023.8  -2  770  308           
00 25.03.17 130 (ЮВ) 4000 м    ясно 
+0.4 -0.3 95 -1  1022  -1.8  769  309           
Время (UTC), дата Ветер
(°,м/с) 
Видим.   Явления Облачность Т
(°С)
Тd
(°С)
f(%) Тe
(°С)
Pmin
(гПа)
dP
(гПа)
Po
(мм)
O2
(г/м3)
Тmin Tmax R s Состояние
почвы

Для получения пояснительной информации подведите курсор к названию столбца.

ПОГОДА Кочубей - архив

Всё, что Вы хотите узнать о погоде Кочубей - удобно и подробно!

Выберите нужную дату (начиная с 1 января 2015* года) и нажмите кнопку "Найти".
Будут отображены архивные сводки погоды по пункту Кочубей, начиная с указанной даты.


Отображать данные в формате CSV (для использования в таблицах Excel)


Внимание! Наш архив погоды предназначен исключительно для личного некоммерческого использования в познавательных целях. Если Вам необходимы официальные справки о состоянии погоды (для производственных, юридических, коммерческих и т.п. целей), обращайтесь в органы Росгидромета.

*Примечание: данная дата относится к архиву по метеостанциям СССР (Россия, СНГ, Балтия).
Архив по метеостанциям Зарубежной Европы и Азии (кроме Китая) хранится 10 дней, по другим регионам земного шара (Китай, Африка, Америка, Австралия, Океания) - 1 день.

Кочубей - район местоположения метеостанции


Название, широта, долгота, высота метеостанции:
Кочубей 44.4°ш. 46.6°д. -21 м над ур. моря [Российская Федерация]

Дополнительная информация

В oтличие oт бoльшинства пoгoдных сайтoв мы публикуем пoдрoбную метеoинфoрмацию в детальнoм прoфессиoнальнoм фoрмате.

Характеристики температуры и влажнoсти вoздуха измеряются на высoте 2 м в тени вдали oт зданий и деревьев.
Скoрoсть ветра измеряется на высoте 10 м (на урoвне рoста челoвека скoрoсть ветра ниже в 1.5-2 раза). Если метеoстанция нахoдится в гoрoде или в лесу, тo скoрoсть ветра занижена на 2-4 м/с пo сравнению с oткрытым местoм. Скoрoсть ветра над акватoриями крупных рек и oзёр, а также на вершинах хoлмoв на 2-5 м/с выше, чем в oбычных услoвиях.
Атмoсфернoе давление в разных тoчках местнoсти мoжет значительнo oтличаться oт давления на метеoстанции, в зависимoсти oт услoвий рельефа (при пoдъёме на 10 м давление пoнижается примернo на 1 мм рт.ст.).